Home > Weather > Lafayette > Past weeks

Flag for USA Past Weather in Lafayette, Louisiana, USA — Yesterday and Last 2 Weeks

Now
81 °F

Heavy rain. Fog.


Feels Like: 89 °F
Forecast: 78 / 92 °F
Wind: 10 mph from Southwest

Location: Lafayette Regional Airport

Current Time: Jul 23, 2016 at 2:25:20 PM

Latest Report: Jul 23, 2016 at 2:00 PM


Visibility: 2 mi

Pressure: 30.00 "Hg

Humidity: 91%

Dew Point: 78 °F

Location of LafayetteLocation

Past Weather in Lafayette — Graph

°F

Lafayette Temperature Yesterday

Maximum temperature yesterday: 93 °F (at 12:53 PM)
Minimum temperature yesterday: 78 °F (at 3:53 AM)
Average temperature yesterday: 85 °F

High & Low Weather Summary for the Past Weeks

 TemperatureHumidityPressure
High96 °F (Jul 21, 1:53 PM)97% (Jul 14, 2:53 AM)30.21 "Hg (Jul 14, 2:53 AM)
Low73 °F (Jul 17, 5:53 AM)46% (Jul 8, 1:53 PM)29.96 "Hg (Jul 15, 8:53 PM)
Average83 °F79%30.07 "Hg
* Reported Jul 8 12:53 PM — Jul 23 12:53 PM, Lafayette, Weather by CustomWeather, © 2016

Note: Actual official high and low records may vary slightly from our data, if they occured in-between our weather recording intervals... More about our weather records

Advertising

Lafayette Weather History for the Previous 24 Hours

Scroll right to see more
 ConditionsComfort  
Time TempWeatherWind HumidityBarometerVisibility
12:53 PM
Sat, Jul 23
92 °FMostly cloudy.3 mph58%29.99 "Hg10 mi
12:00 PM90 °FMostly cloudy.No wind59%30.01 "Hg10 mi
10:53 AM90 °FPartly sunny.6 mph63%30.00 "Hg10 mi
9:53 AM88 °FPartly sunny.6 mph70%30.01 "Hg10 mi
8:53 AM86 °FSunny.No wind75%30.01 "Hg10 mi
7:53 AM83 °FSunny.No wind85%30.00 "Hg10 mi
6:53 AM80 °FClear.No wind90%29.98 "Hg10 mi
5:53 AM79 °FClear.No wind94%29.97 "Hg9 mi
4:53 AM79 °FClear.No wind97%29.97 "Hg8 mi
3:53 AM80 °FFog.No wind96%29.98 "Hg4 mi
2:57 AM80 °FFog.No wind96%29.99 "Hg1 mi
1:53 AM80 °FFog.3 mph96%30.00 "Hg5 mi
12:53 AM81 °FClear.No wind97%30.01 "Hg8 mi
11:53 PM
Fri, Jul 22
82 °FPassing clouds.No wind91%30.03 "Hg10 mi
10:53 PM83 °FPassing clouds.No wind88%30.02 "Hg10 mi
9:53 PM84 °FClear.No wind85%29.98 "Hg10 mi
8:53 PM85 °FSunny.5 mph80%29.96 "Hg10 mi
7:53 PM86 °FSunny.No wind77%30.01 "Hg10 mi
6:53 PM88 °FSunny.3 mph67%30.00 "Hg10 mi
5:53 PM89 °FSunny.10 mph61%30.01 "Hg10 mi
4:53 PM89 °FScattered clouds.10 mph65%30.03 "Hg10 mi
3:53 PM87 °FLight rain. Broken clouds.6 mph67%30.03 "Hg10 mi
2:53 PM92 °FThundershowers. Broken clouds.6 mph58%30.04 "Hg10 mi
2:00 PM91 °FMostly cloudy.5 mph61%30.07 "Hg10 mi
Weather by CustomWeather, © 2016

See weather overviewHow to use our weather pages